Location: St Paul
(33.9360°N, 83.4200°W)
Time: 03:05:54
(UTC-04:00)

Meteor 2-21 - Pass Details

Date: 06 October 2017
Orbit: 933 x 968 km, 82.5° (Epoch: 19 October)

Event Time Altitude Azimuth Distance (km) Brightness Sun altitude
Rises 20:15:57 0° 182° (S) 3,620 7.5 -14.3°
Reaches altitude 10° 20:18:26 10° 181° (S) 2,672 6.8 -14.8°
Maximum altitude 20:24:33 82° 96° (E) 961 4.4 -16.1°
Drops below altitude 10° 20:30:39 10° 9° (N) 2,664 6.8 -17.4°
Sets 20:33:08 0° 8° (N) 3,607 7.5 -17.9°
